User: anonymous   Login
Location: La Comballaz
(46.3780°N, 7.0817°E)
Time: 07:54:45
(UTC+00:00)
Language:

ITUPSAT 1 - Orbit

View from above orbital plane
View from above orbital plane
View from above satellite
View from above satellite

Ground track
Ground track

The orbit data is extracted from the following two-line orbital elements,

1 35935U 09051E   22330.59257041  .00000511  00000-0  12677-3 0  9996
2 35935  98.5489 192.4217 0007004 289.9841  70.0601 14.56175382699479
Epoch (UTC): 26 November 2022 14:13:18
Eccentricity: 0.0007004
inclination: 98.5489°
perigee height: 700 km
apogee height: 710 km
right ascension of ascending node: 192.4217°
argument of perigee: 289.9841°
revolutions per day: 14.56175382
mean anomaly at epoch: 70.0601°
orbit number at epoch: 69947

The dashed part of the orbit path shows where the satellite is in the earth's shadow,  

DLR